sat.trackr.live / text

‹ back to catalog

STARLINK-4064

NORAD 52665 · 2022-053K

PAYLOAD ACTIVE UNKNOWN

§ Identity

Operator
Country
US
Launch date
2022-05-18
Launch site
AFETR
Launch vehicle
Mass (kg)
RCS (m²)

Purposes: comms

External: N2YO · Heavens-Above · Gunter

§ Orbital elements

Epoch: 2026-09-19T22:39:14.064192Z

Period
95.44 min
Inclination
53.1620°
Eccentricity
0.0000942
Mean motion
15.08839222 rev/d
Perigee alt
539.1 km
Apogee alt
540.4 km
Semi-major
6,917.9 km
B*
5.1094e-5
RAAN
1.4195°
Arg perigee
84.9212°
Mean anomaly
275.1887°
Rev number
24,037

§ Raw data

STARLINK-40641 52665U 22053K   26262.94391278  .00000525  00000+0  51094-4 0  99912 52665  53.1620   1.4195 0000942  84.9212 275.1887 15.08839222240378

JSON: /api/v1/satellites/52665 · /tle

For live sub-satellite position, see the globe view (requires WebGL).

§ Visibility from observer

Set your observer location to see the next 7 days of passes ≥ 10°. The values pass through the URL so the page stays shareable.

No JS? Fill the form by hand. The geolocation button needs JavaScript.